Weather in Khamney

Russia / Republic of Buryatia     50°24′09″N   103°52′03″E
temp.,
°C
wind,
m/s
gust,
m/s
humid.,
%
clouds,
%
prec.,
mm/h
press.,
hPa
HPBL,
m
24 may, tue
tue2423:00+4n11914 0.3 102312
02:00+3nnw11914 0.3 102616
05:00+2nw11923 0.0 102711
08:00+8wnw116951 0.0 1026327
11:00+16ssw113680 0.0 10241477
14:00+18sse2225100 0.0 10222111
17:00+19e232132 0.0 10202335
20:00+15ese263357 0.0 1021174
25 may, wed
wed2523:00+10e1146100 0.0 102411
02:00+8se005386 0.0 102410
05:00+7n1160100 0.0 102410
08:00+13sw114320 0.0 1023309
11:00+20wsw132622 0.0 10201754
14:00+24sw031810 0.0 10153211
17:00+24ssw141738 0.0 10123520
20:00+19ssw123055 0.0 101218
26 may, thu
thu2623:00+12ene11465 0.0 101311
02:00+9n01565 0.0 101310
05:00+8nnw115898 0.0 101210
08:00+14wnw1142100 0.0 1010198
11:00+21w1228100 0.0 1006750
14:00+25w2319100 0.0 10032267
17:00+25ne3321100 0.0 10013098
20:00+18nne5103675 0.0 1003796
27 may, fri
fri2723:00+12n2368100 0.2 100779
02:00+9n228851 0.4 100728
05:00+9ne1284100 0.2 100898
08:00+8s1190100 3.9 1009219
11:00+8sse1286100 1.0 1009418
14:00+8s238691 1.6 1008413
17:00+11ssw126986 0.6 1005867
20:00+9nw0179100 0.6 100415
28 may, sat
sat2823:00+8nne2577100 0.3 1005359
02:00+4ne1592100 6.4 1008578
05:00+4wnw1295100 1.8 1008176
08:00+6nnw2682100 2.0 1009701
11:00+10n473967 0.1 10091851
14:00+9n5944100 2.1 10081928
17:00+10nnw6112914 0.0 10102397
20:00+8nnw310344 0.0 10132171